Location: Newark
(41.0400°S, 62.7845°W)
Time: 00:23:51
(UTC+00:00)

Vanguard 2 - Pass Details

Date: 03 December 2021
Orbit: 554 x 2935 km, 32.9° (Epoch: 27 January)

Event Time Altitude Azimuth Distance (km) Brightness Sun altitude
Exits shadow 06:38:44 - 287° (WNW) 5,931 11.6 -17.0°
Reaches altitude 10° 06:39:56 10° 288° (WNW) 5,648 11.4 -16.8°
Maximum altitude 06:56:03 60° 1° (N) 2,479 9.8 -14.9°
Drops below altitude 10° 07:06:35 10° 77° (ENE) 3,836 11.5 -13.6°
Sets 07:09:11 0° 81° (E) 4,547 12.0 -13.2°
